| time (UTC) | temp F | wind direction | speed MPH | gust MPH | rain 1hr in | rain 24hr in | rain mn in | humidity % | barometer mb |
| 20260506034508 | 37 | 269 | 4.0 | 0.0 | 0.00 | 0.00 | 0.02 | 72 | 1011.9 |
| 20260506033007 | 38 | 270 | 4.0 | 0.0 | 0.00 | 0.00 | 0.02 | 71 | 1011.9 |
| 20260506031513 | 38 | 271 | 3.0 | 0.0 | 0.00 | 0.00 | 0.02 | 70 | 1011.8 |
| 20260506030007 | 37 | 271 | 4.0 | 0.0 | 0.00 | 0.00 | 0.02 | 71 | 1011.9 |
| 20260506024504 | 37 | 271 | 9.0 | 0.0 | 0.00 | 0.00 | 0.02 | 74 | 1012.2 |
| 20260506023002 | 37 | 286 | 10.0 | 0.0 | 0.00 | 0.00 | 0.02 | 82 | 1012.3 |
| 20260506021502 | 38 | 283 | 12.0 | 0.0 | 0.00 | 0.00 | 0.02 | 84 | 1012.3 |
| 20260506020059 | 37 | 169 | 2.0 | 0.0 | 0.00 | 0.00 | 0.02 | 87 | 1012.2 |
| 20260506014602 | 36 | 103 | 1.0 | 0.0 | 0.00 | 0.00 | 0.02 | 87 | 1012.3 |
| 20260506013100 | 36 | 103 | 2.0 | 0.0 | 0.00 | 0.00 | 0.02 | 87 | 1012.3 |
| 20260506011600 | 36 | 55 | 2.0 | 0.0 | 0.00 | 0.00 | 0.01 | 86 | 1012.3 |
| 20260506010100 | 36 | 10 | 1.0 | 0.0 | 0.00 | 0.00 | 0.01 | 86 | 1012.4 |
| 20260506004627 | 36 | 10 | 0.0 | 0.0 | 0.00 | 0.00 | 0.01 | 86 | 1012.3 |
| 20260506003057 | 36 | 10 | 1.0 | 0.0 | 0.00 | 0.00 | 0.01 | 85 | 1012.3 |
| 20260506001559 | 36 | 346 | 1.0 | 0.0 | 0.00 | 0.00 | 0.01 | 85 | 1012.4 |
| 20260506000054 | 36 | 346 | 1.0 | 0.0 | 0.00 | 0.00 | 0.01 | 86 | 1012.4 |
| 20260505234613 | 36 | 346 | 0.0 | 0.0 | 0.00 | 0.00 | 0.01 | 86 | 1012.4 |
| 20260505233053 | 36 | 346 | 0.0 | 0.0 | 0.00 | 0.00 | 0.01 | 86 | 1012.4 |
| 20260505231553 | 36 | 346 | 3.0 | 0.0 | 0.00 | 0.00 | 0.01 | 86 | 1012.5 |
| 20260505230053 | 36 | 346 | 2.0 | 0.0 | 0.00 | 0.00 | 0.01 | 85 | 1012.4 |
| 20260505224551 | 36 | 336 | 4.0 | 0.0 | 0.00 | 0.00 | 0.01 | 84 | 1012.4 |
| 20260505223059 | 38 | 348 | 5.0 | 0.0 | 0.00 | 0.00 | 0.01 | 82 | 1012.5 |
| 20260505221558 | 39 | 278 | 6.0 | 0.0 | 0.00 | 0.00 | 0.00 | 77 | 1012.4 |
| 20260505220046 | 38 | 300 | 0.0 | 0.0 | 0.00 | 0.00 | 0.09 | 72 | 1012.4 |
| 20260505214552 | 38 | 300 | 0.0 | 0.0 | 0.00 | 0.00 | 0.09 | 71 | 1012.4 |
| 20260505213043 | 39 | 300 | 0.0 | 0.0 | 0.00 | 0.00 | 0.09 | 70 | 1012.3 |
| 20260505211539 | 38 | 300 | 0.0 | 0.0 | 0.00 | 0.00 | 0.09 | 70 | 1012.2 |
| 20260505210039 | 38 | 300 | 0.0 | 0.0 | 0.00 | 0.00 | 0.09 | 70 | 1012.3 |
| 20260505204538 | 38 | 300 | 0.0 | 0.0 | 0.00 | 0.00 | 0.09 | 71 | 1012.3 |
| 20260505203038 | 38 | 300 | 0.0 | 0.0 | 0.00 | 0.00 | 0.09 | 70 | 1012.3 |
| 20260505201538 | 38 | 300 | 0.0 | 0.0 | 0.00 | 0.00 | 0.09 | 69 | 1012.3 |
| 20260505200037 | 38 | 300 | 0.0 | 0.0 | 0.00 | 0.00 | 0.09 | 69 | 1012.4 |
| 20260505194538 | 39 | 300 | 1.0 | 0.0 | 0.00 | 0.00 | 0.09 | 69 | 1012.2 |
| 20260505193035 | 39 | 300 | 1.0 | 0.0 | 0.00 | 0.00 | 0.09 | 68 | 1012.1 |
| 20260505191535 | 40 | 300 | 1.0 | 0.0 | 0.00 | 0.00 | 0.09 | 66 | 1011.9 |
| 20260505190041 | 41 | 300 | 1.0 | 0.0 | 0.00 | 0.00 | 0.09 | 65 | 1011.8 |
| 20260505184534 | 42 | 298 | 3.0 | 0.0 | 0.00 | 0.00 | 0.09 | 61 | 1011.8 |
| 20260505183043 | 42 | 333 | 4.0 | 0.0 | 0.00 | 0.00 | 0.09 | 60 | 1011.7 |
| 20260505181537 | 43 | 347 | 4.0 | 0.0 | 0.00 | 0.00 | 0.09 | 58 | 1011.6 |
| 20260505180031 | 43 | 293 | 4.0 | 0.0 | 0.00 | 0.00 | 0.09 | 60 | 1011.5 |
| 20260505174530 | 44 | 274 | 5.0 | 0.0 | 0.00 | 0.00 | 0.09 | 59 | 1011.4 |
| 20260505173038 | 44 | 325 | 5.0 | 0.0 | 0.00 | 0.00 | 0.09 | 60 | 1011.3 |
| 20260505171533 | 43 | 310 | 5.0 | 0.0 | 0.00 | 0.00 | 0.09 | 62 | 1011.3 |
| 20260505170033 | 44 | 285 | 5.0 | 0.0 | 0.00 | 0.00 | 0.09 | 59 | 1011.3 |
| 20260505164529 | 44 | 286 | 9.0 | 0.0 | 0.00 | 0.00 | 0.09 | 57 | 1011.2 |
| 20260505163027 | 44 | 273 | 7.0 | 0.0 | 0.00 | 0.00 | 0.09 | 60 | 1011.1 |
| 20260505161528 | 44 | 302 | 10.0 | 0.0 | 0.00 | 0.00 | 0.09 | 59 | 1011.0 |
| 20260505153027 | 44 | 249 | 12.0 | 0.0 | 0.00 | 0.00 | 0.09 | 62 | 1010.9 |
| 20260505151524 | 43 | 299 | 12.0 | 0.0 | 0.00 | 0.00 | 0.09 | 62 | 1010.8 |
| 20260505124515 | 41 | 244 | 4.0 | 0.0 | 0.00 | 0.00 | 0.08 | 84 | 1011.1 |
| 20260505123012 | 40 | 284 | 5.0 | 0.0 | 0.00 | 0.00 | 0.08 | 87 | 1011.1 |
| 20260505121512 | 39 | 248 | 4.0 | 0.0 | 0.00 | 0.00 | 0.08 | 89 | 1010.9 |
| 20260505120010 | 37 | 276 | 3.0 | 0.0 | 0.00 | 0.00 | 0.07 | 89 | 1010.9 |
| 20260505114510 | 34 | 298 | 7.0 | 0.0 | 0.00 | 0.00 | 0.05 | 87 | 1011.1 |
| 20260505113008 | 37 | 317 | 10.0 | 0.0 | 0.00 | 0.00 | 0.05 | 82 | 1011.0 |
| 20260505111507 | 41 | 223 | 9.0 | 0.0 | 0.00 | 0.00 | 0.05 | 86 | 1010.7 |
| 20260505101506 | 39 | 207 | 5.0 | 0.0 | 0.00 | 0.00 | 0.04 | 86 | 1010.5 |
| 20260505100004 | 39 | 218 | 7.0 | 0.0 | 0.00 | 0.00 | 0.03 | 85 | 1010.6 |
| 20260505094604 | 40 | 233 | 7.0 | 0.0 | 0.00 | 0.00 | 0.03 | 87 | 1010.5 |
| 20260505093103 | 38 | 219 | 6.0 | 0.0 | 0.00 | 0.00 | 0.03 | 89 | 1010.4 |
| 20260505091612 | 38 | 202 | 6.0 | 0.0 | 0.00 | 0.00 | 0.03 | 88 | 1010.7 |
| 20260505090056 | 37 | 226 | 7.0 | 0.0 | 0.00 | 0.00 | 0.03 | 89 | 1010.6 |
| 20260505084557 | 37 | 242 | 4.0 | 0.0 | 0.00 | 0.00 | 0.03 | 88 | 1010.5 |
| 20260505083056 | 36 | 224 | 2.0 | 0.0 | 0.00 | 0.00 | 0.03 | 88 | 1010.5 |
| 20260505081556 | 35 | 225 | 1.0 | 0.0 | 0.00 | 0.00 | 0.03 | 88 | 1010.4 |
| 20260505080105 | 35 | 225 | 3.0 | 0.0 | 0.00 | 0.00 | 0.02 | 87 | 1010.4 |
| 20260505074554 | 35 | 211 | 6.0 | 0.0 | 0.00 | 0.00 | 0.02 | 84 | 1010.6 |
| 20260505073055 | 37 | 197 | 4.0 | 0.0 | 0.00 | 0.00 | 0.02 | 79 | 1010.4 |
| 20260505071555 | 38 | 238 | 1.0 | 0.0 | 0.00 | 0.00 | 0.01 | 76 | 1010.3 |
| 20260505070056 | 37 | 238 | 0.0 | 0.0 | 0.00 | 0.00 | 0.01 | 76 | 1010.3 |
| 20260505064552 | 37 | 238 | 1.0 | 0.0 | 0.00 | 0.00 | 0.01 | 78 | 1010.3 |
| 20260505063110 | 36 | 238 | 5.0 | 0.0 | 0.00 | 0.00 | 0.01 | 77 | 1010.3 |
| 20260505061555 | 37 | 237 | 6.0 | 0.0 | 0.00 | 0.00 | 0.01 | 75 | 1010.3 |
| 20260505060054 | 39 | 280 | 4.0 | 0.0 | 0.00 | 0.00 | 0.01 | 67 | 1010.2 |
| 20260505054558 | 38 | 265 | 4.0 | 0.0 | 0.00 | 0.00 | 0.01 | 65 | 1010.3 |
| 20260505053055 | 38 | 261 | 5.0 | 0.0 | 0.00 | 0.00 | 0.01 | 68 | 1010.2 |
| 20260505051543 | 36 | 240 | 2.0 | 0.0 | 0.00 | 0.00 | 0.01 | 81 | 1010.3 |
| 20260505041551 | 35 | 313 | 2.0 | 0.0 | 0.00 | 0.00 | 0.00 | 86 | 1010.2 |
| 20260505040049 | 35 | 313 | 1.0 | 0.0 | 0.00 | 0.00 | 0.00 | 86 | 1010.2 |